Location: Gleizolles
(44.4833°N, 6.7667°E)
Time: 10:29:22
(UTC+00:00)

Tiros 1 - Pass Details

Date: 26 June 2024
Orbit: 624 x 656 km, 48.4° (Epoch: 20 July)

Event Time Altitude Azimuth Distance (km) Brightness Sun altitude
Rises 00:15:59 0° 269° (W) 2,900 - -21.6°
Exits shadow 00:16:00 - 269° (W) 2,890 10.4 -21.5°
Reaches altitude 10° 00:18:20 10° 274° (W) 1,995 9.6 -21.5°
Maximum altitude 00:22:50 55° 352° (N) 758 7.8 -21.3°
Drops below altitude 10° 00:27:22 10° 71° (ENE) 2,010 10.1 -21.2°
Sets 00:29:45 0° 76° (ENE) 2,923 10.9 -21.1°
